Year,Month,Day,Hour,Minute,Value (Times are PST for temperature in C)
2021,04,23,00,00,11.00
2021,04,23,00,01,10.90
2021,04,23,00,02,10.90
2021,04,23,00,03,10.90
2021,04,23,00,04,10.90
2021,04,23,00,05,10.90
2021,04,23,00,06,10.80
2021,04,23,00,07,10.80
2021,04,23,00,08,10.80
2021,04,23,00,09,10.80
2021,04,23,00,10,10.80
2021,04,23,00,11,10.70
2021,04,23,00,12,10.70
2021,04,23,00,13,10.70
2021,04,23,00,14,10.70
2021,04,23,00,15,10.70
2021,04,23,00,16,10.60
2021,04,23,00,17,10.60
2021,04,23,00,18,10.60
2021,04,23,00,19,10.60
2021,04,23,00,20,10.60
2021,04,23,00,21,10.60
2021,04,23,00,22,10.50
2021,04,23,00,23,10.50
2021,04,23,00,24,10.50
2021,04,23,00,25,10.50
2021,04,23,00,26,10.40
2021,04,23,00,27,10.40
2021,04,23,00,28,10.40
2021,04,23,00,29,10.40
2021,04,23,00,30,10.40
2021,04,23,00,31,10.40
2021,04,23,00,32,10.40
2021,04,23,00,33,10.30
2021,04,23,00,34,10.30
2021,04,23,00,35,10.30
2021,04,23,00,36,10.30
2021,04,23,00,37,10.30
2021,04,23,00,38,10.30
2021,04,23,00,39,10.20
2021,04,23,00,40,10.20
2021,04,23,00,41,10.20
2021,04,23,00,42,10.20
2021,04,23,00,43,10.20
2021,04,23,00,44,10.20
2021,04,23,00,45,10.20
2021,04,23,00,46,10.10
2021,04,23,00,47,10.10
2021,04,23,00,48,10.10
2021,04,23,00,49,10.10
2021,04,23,00,50,10.10
2021,04,23,00,51,10.10
2021,04,23,00,52,10.10
2021,04,23,00,53,10.10
2021,04,23,00,54,10.10
2021,04,23,00,55,10.00
2021,04,23,00,56,10.00
2021,04,23,00,57,10.00
2021,04,23,00,58,9.90
2021,04,23,00,59,9.90
2021,04,23,01,00,9.90
2021,04,23,01,01,9.90
2021,04,23,01,02,9.90
2021,04,23,01,03,9.90
2021,04,23,01,04,9.90
2021,04,23,01,05,9.80
2021,04,23,01,06,9.80
2021,04,23,01,07,9.80
2021,04,23,01,08,9.80
2021,04,23,01,09,9.80
2021,04,23,01,10,9.80
2021,04,23,01,11,9.80
2021,04,23,01,12,9.80
2021,04,23,01,13,9.80
2021,04,23,01,14,9.70
2021,04,23,01,15,9.70
2021,04,23,01,16,9.70
2021,04,23,01,17,9.70
2021,04,23,01,18,9.60
2021,04,23,01,19,9.60
2021,04,23,01,20,9.60
2021,04,23,01,21,9.60
2021,04,23,01,22,9.60
2021,04,23,01,23,9.60
2021,04,23,01,24,9.60
2021,04,23,01,25,9.60
2021,04,23,01,26,9.60
2021,04,23,01,27,9.60
2021,04,23,01,28,9.60
2021,04,23,01,29,9.60
2021,04,23,01,30,9.60
2021,04,23,01,31,9.60
2021,04,23,01,32,9.60
2021,04,23,01,33,9.60
2021,04,23,01,34,9.60
2021,04,23,01,35,9.60
2021,04,23,01,36,9.60
2021,04,23,01,37,9.60
2021,04,23,01,38,9.60
2021,04,23,01,39,9.60
2021,04,23,01,40,9.60
2021,04,23,01,41,9.60
2021,04,23,01,42,9.60
2021,04,23,01,43,9.60
2021,04,23,01,44,9.60
2021,04,23,01,45,9.60
2021,04,23,01,46,9.50
2021,04,23,01,47,9.50
2021,04,23,01,48,9.50
2021,04,23,01,49,9.50
2021,04,23,01,50,9.50
2021,04,23,01,51,9.50
2021,04,23,01,52,9.50
2021,04,23,01,53,9.50
2021,04,23,01,54,9.60
2021,04,23,01,55,9.60
2021,04,23,01,56,9.60
2021,04,23,01,57,9.60
2021,04,23,01,58,9.60
2021,04,23,01,59,9.60
2021,04,23,02,00,9.60
2021,04,23,02,01,9.60
2021,04,23,02,02,9.60
2021,04,23,02,03,9.60
2021,04,23,02,04,9.60
2021,04,23,02,05,9.70
2021,04,23,02,06,9.70
2021,04,23,02,07,9.70
2021,04,23,02,08,9.60
2021,04,23,02,09,9.60
2021,04,23,02,10,9.60
2021,04,23,02,11,9.60
2021,04,23,02,12,9.60
2021,04,23,02,13,9.60
2021,04,23,02,14,9.60
2021,04,23,02,15,9.60
2021,04,23,02,16,9.60
2021,04,23,02,17,9.60
2021,04,23,02,18,9.60
2021,04,23,02,19,9.60
2021,04,23,02,20,9.50
2021,04,23,02,21,9.50
2021,04,23,02,22,9.50
2021,04,23,02,23,9.50
2021,04,23,02,24,9.50
2021,04,23,02,25,9.50
2021,04,23,02,26,9.40
2021,04,23,02,27,9.40
2021,04,23,02,28,9.40
2021,04,23,02,29,9.40
2021,04,23,02,30,9.40
2021,04,23,02,31,9.40
2021,04,23,02,32,9.40
2021,04,23,02,33,9.40
2021,04,23,02,34,9.50
2021,04,23,02,35,9.50
2021,04,23,02,36,9.50
2021,04,23,02,37,9.50
2021,04,23,02,38,9.50
2021,04,23,02,39,9.50
2021,04,23,02,40,9.50
2021,04,23,02,41,9.50
2021,04,23,02,42,9.50
2021,04,23,02,43,9.50
2021,04,23,02,44,9.50
2021,04,23,02,45,9.50
2021,04,23,02,46,9.50
2021,04,23,02,47,9.60
2021,04,23,02,48,9.60
2021,04,23,02,49,9.60
2021,04,23,02,50,9.60
2021,04,23,02,51,9.60
2021,04,23,02,52,9.60
2021,04,23,02,53,9.60
2021,04,23,02,54,9.60
2021,04,23,02,55,9.60
2021,04,23,02,56,9.50
2021,04,23,02,57,9.50
2021,04,23,02,58,9.50
2021,04,23,02,59,9.50
2021,04,23,03,00,9.50
2021,04,23,03,01,9.50
2021,04,23,03,02,9.50
2021,04,23,03,03,9.40
2021,04,23,03,04,9.40
2021,04,23,03,05,9.40
2021,04,23,03,06,9.40
2021,04,23,03,07,9.40
2021,04,23,03,08,9.40
2021,04,23,03,09,9.30
2021,04,23,03,10,9.30
2021,04,23,03,11,9.30
2021,04,23,03,12,9.30
2021,04,23,03,13,9.30
2021,04,23,03,14,9.30
2021,04,23,03,15,9.30
2021,04,23,03,16,9.30
2021,04,23,03,17,9.30
2021,04,23,03,18,9.30
2021,04,23,03,19,9.30
2021,04,23,03,20,9.30
2021,04,23,03,21,9.30
2021,04,23,03,22,9.30
2021,04,23,03,23,9.30
2021,04,23,03,24,9.30
2021,04,23,03,25,9.30
2021,04,23,03,26,9.40
2021,04,23,03,27,9.40
2021,04,23,03,28,9.40
2021,04,23,03,29,9.40
2021,04,23,03,30,9.40
2021,04,23,03,31,9.40
2021,04,23,03,32,9.40
2021,04,23,03,33,9.40
2021,04,23,03,34,9.40
2021,04,23,03,35,9.40
2021,04,23,03,36,9.40
2021,04,23,03,37,9.40
2021,04,23,03,38,9.40
2021,04,23,03,39,9.40
2021,04,23,03,40,9.40
2021,04,23,03,41,9.40
2021,04,23,03,42,9.40
2021,04,23,03,43,9.40
2021,04,23,03,44,9.40
2021,04,23,03,45,9.40
2021,04,23,03,46,9.40
2021,04,23,03,47,9.40
2021,04,23,03,48,9.30
2021,04,23,03,49,9.30
2021,04,23,03,50,9.30
2021,04,23,03,51,9.30
2021,04,23,03,52,9.30
2021,04,23,03,53,9.30
2021,04,23,03,54,9.30
2021,04,23,03,55,9.30
2021,04,23,03,56,9.30
2021,04,23,03,57,9.30
2021,04,23,03,58,9.20
2021,04,23,03,59,9.20
2021,04,23,04,00,9.20
2021,04,23,04,01,9.30
2021,04,23,04,02,9.30
2021,04,23,04,03,9.30
2021,04,23,04,04,9.30
2021,04,23,04,05,9.30
2021,04,23,04,06,9.30
2021,04,23,04,07,9.30
2021,04,23,04,08,9.30
2021,04,23,04,09,9.30
2021,04,23,04,10,9.30
2021,04,23,04,11,9.30
2021,04,23,04,12,9.30
2021,04,23,04,13,9.30
2021,04,23,04,14,9.30
2021,04,23,04,15,9.30
2021,04,23,04,16,9.30
2021,04,23,04,17,9.30
2021,04,23,04,18,9.30
2021,04,23,04,19,9.30
2021,04,23,04,20,9.30
2021,04,23,04,21,9.30
2021,04,23,04,22,9.30
2021,04,23,04,23,9.30
2021,04,23,04,24,9.30
2021,04,23,04,25,9.30
2021,04,23,04,26,9.30
2021,04,23,04,27,9.30
2021,04,23,04,28,9.30
2021,04,23,04,29,9.30
2021,04,23,04,30,9.30
2021,04,23,04,31,9.40
2021,04,23,04,32,9.40
2021,04,23,04,33,9.40
2021,04,23,04,34,9.40
2021,04,23,04,35,9.40
2021,04,23,04,36,9.40
2021,04,23,04,37,9.50
2021,04,23,04,38,9.50
2021,04,23,04,39,9.50
2021,04,23,04,40,9.50
2021,04,23,04,41,9.50
2021,04,23,04,42,9.50
2021,04,23,04,43,9.50
2021,04,23,04,44,9.50
2021,04,23,04,45,9.50
2021,04,23,04,46,9.50
2021,04,23,04,47,9.50
2021,04,23,04,48,9.50
2021,04,23,04,49,9.40
2021,04,23,04,50,9.40
2021,04,23,04,51,9.40
2021,04,23,04,52,9.40
2021,04,23,04,53,9.40
2021,04,23,04,54,9.40
2021,04,23,04,55,9.40
2021,04,23,04,56,9.40
2021,04,23,04,57,9.40
2021,04,23,04,58,9.40
2021,04,23,04,59,9.40
2021,04,23,05,00,9.40
2021,04,23,05,01,9.40
2021,04,23,05,02,9.30
2021,04,23,05,03,9.30
2021,04,23,05,04,9.30
2021,04,23,05,05,9.30
2021,04,23,05,06,9.30
2021,04,23,05,07,9.30
2021,04,23,05,08,9.30
2021,04,23,05,09,9.30
2021,04,23,05,10,9.30
2021,04,23,05,11,9.30
2021,04,23,05,12,9.30
2021,04,23,05,13,9.30
2021,04,23,05,14,9.20
2021,04,23,05,15,9.20
2021,04,23,05,16,9.20
2021,04,23,05,17,9.20
2021,04,23,05,18,9.20
2021,04,23,05,19,9.20
2021,04,23,05,20,9.20
2021,04,23,05,21,9.20
2021,04,23,05,22,9.20
2021,04,23,05,23,9.20
2021,04,23,05,24,9.20
2021,04,23,05,25,9.20
2021,04,23,05,26,9.20
2021,04,23,05,27,9.20
2021,04,23,05,28,9.20
2021,04,23,05,29,9.20
2021,04,23,05,30,9.20
2021,04,23,05,31,9.20
2021,04,23,05,32,9.20
2021,04,23,05,33,9.20
2021,04,23,05,34,9.20
2021,04,23,05,35,9.20
2021,04,23,05,36,9.20
2021,04,23,05,37,9.20
2021,04,23,05,38,9.20
2021,04,23,05,39,9.10
2021,04,23,05,40,9.10
2021,04,23,05,41,9.10
2021,04,23,05,42,9.10
2021,04,23,05,43,9.10
2021,04,23,05,44,9.10
2021,04,23,05,45,9.10
2021,04,23,05,46,9.10
2021,04,23,05,47,9.10
2021,04,23,05,48,9.10
2021,04,23,05,49,9.10
2021,04,23,05,50,9.10
2021,04,23,05,51,9.10
2021,04,23,05,52,9.10
2021,04,23,05,53,9.10
2021,04,23,05,54,9.10
2021,04,23,05,55,9.10
2021,04,23,05,56,9.10
2021,04,23,05,57,9.10
2021,04,23,05,58,9.10
2021,04,23,05,59,9.00
2021,04,23,06,00,9.00
2021,04,23,06,01,9.00
2021,04,23,06,02,9.00
2021,04,23,06,03,9.00
2021,04,23,06,04,9.00
2021,04,23,06,05,8.90
2021,04,23,06,06,8.90
2021,04,23,06,07,8.90
2021,04,23,06,08,8.90
2021,04,23,06,09,8.90
2021,04,23,06,10,8.90
2021,04,23,06,11,8.90
2021,04,23,06,12,8.90
2021,04,23,06,13,8.90
2021,04,23,06,14,8.90
2021,04,23,06,15,8.90
2021,04,23,06,16,8.90
2021,04,23,06,17,8.90
2021,04,23,06,18,8.90
2021,04,23,06,19,8.90
2021,04,23,06,20,8.80
2021,04,23,06,21,8.80
2021,04,23,06,22,8.80
2021,04,23,06,23,8.80
2021,04,23,06,24,8.80
2021,04,23,06,25,8.80
2021,04,23,06,26,8.80
2021,04,23,06,27,8.80
2021,04,23,06,28,8.80
2021,04,23,06,29,8.80
2021,04,23,06,30,8.80
2021,04,23,06,31,8.80
2021,04,23,06,32,8.80
2021,04,23,06,33,8.70
2021,04,23,06,34,8.70
2021,04,23,06,35,8.70
2021,04,23,06,36,8.70
2021,04,23,06,37,8.70
2021,04,23,06,38,8.70
2021,04,23,06,39,8.70
2021,04,23,06,40,8.70
2021,04,23,06,41,8.70
2021,04,23,06,42,8.70
2021,04,23,06,43,8.70
2021,04,23,06,44,8.70
2021,04,23,06,45,8.70
2021,04,23,06,46,8.70
2021,04,23,06,47,8.70
2021,04,23,06,48,8.70
2021,04,23,06,49,8.70
2021,04,23,06,50,8.70
2021,04,23,06,51,8.70
2021,04,23,06,52,8.70
2021,04,23,06,53,8.70
2021,04,23,06,54,8.70
2021,04,23,06,55,8.70
2021,04,23,06,56,8.70
2021,04,23,06,57,8.70
2021,04,23,06,58,8.70
2021,04,23,06,59,8.70
2021,04,23,07,00,8.70
2021,04,23,07,01,8.60
2021,04,23,07,02,8.60
2021,04,23,07,03,8.60
2021,04,23,07,04,8.60
2021,04,23,07,05,8.60
2021,04,23,07,06,8.60
2021,04,23,07,07,8.60
2021,04,23,07,08,8.60
2021,04,23,07,09,8.60
2021,04,23,07,10,8.60
2021,04,23,07,11,8.60
2021,04,23,07,12,8.60
2021,04,23,07,13,8.60
2021,04,23,07,14,8.70
2021,04,23,07,15,8.70
2021,04,23,07,16,8.70
2021,04,23,07,17,8.70
2021,04,23,07,18,8.70
2021,04,23,07,19,8.70
2021,04,23,07,20,8.70
2021,04,23,07,21,8.70
2021,04,23,07,22,8.70
2021,04,23,07,23,8.70
2021,04,23,07,24,8.80
2021,04,23,07,25,8.80
2021,04,23,07,26,8.80
2021,04,23,07,27,8.80
2021,04,23,07,28,8.80
2021,04,23,07,29,8.80
2021,04,23,07,30,8.80
2021,04,23,07,31,8.80
2021,04,23,07,32,8.80
2021,04,23,07,33,8.80
2021,04,23,07,34,8.90
2021,04,23,07,35,8.90
2021,04,23,07,36,8.90
2021,04,23,07,37,8.90
2021,04,23,07,38,8.90
2021,04,23,07,39,8.90
2021,04,23,07,40,9.00
2021,04,23,07,41,9.00
2021,04,23,07,42,9.00
2021,04,23,07,43,9.00
2021,04,23,07,44,9.10
2021,04,23,07,45,9.10
2021,04,23,07,46,9.10
2021,04,23,07,47,9.10
2021,04,23,07,48,9.10
2021,04,23,07,49,9.10
2021,04,23,07,50,9.20
2021,04,23,07,51,9.20
2021,04,23,07,52,9.20
2021,04,23,07,53,9.20
2021,04,23,07,54,9.20
2021,04,23,07,55,9.20
2021,04,23,07,56,9.20
2021,04,23,07,57,9.30
2021,04,23,07,58,9.30
2021,04,23,07,59,9.30
2021,04,23,08,00,9.30
2021,04,23,08,01,9.40
2021,04,23,08,02,9.40
2021,04,23,08,03,9.40
2021,04,23,08,04,9.50
2021,04,23,08,05,9.50
2021,04,23,08,06,9.50
2021,04,23,08,07,9.60
2021,04,23,08,08,9.60
2021,04,23,08,09,9.60
2021,04,23,08,10,9.70
2021,04,23,08,11,9.70
2021,04,23,08,12,9.70
2021,04,23,08,13,9.70
2021,04,23,08,14,9.70
2021,04,23,08,15,9.80
2021,04,23,08,16,9.80
2021,04,23,08,17,9.80
2021,04,23,08,18,9.80
2021,04,23,08,19,9.80
2021,04,23,08,20,9.90
2021,04,23,08,21,9.90
2021,04,23,08,22,9.90
2021,04,23,08,23,10.00
2021,04,23,08,24,10.00
2021,04,23,08,25,10.00
2021,04,23,08,26,10.00
2021,04,23,08,27,10.00
2021,04,23,08,28,10.10
2021,04,23,08,29,10.10
2021,04,23,08,30,10.10
2021,04,23,08,31,10.10
2021,04,23,08,32,10.10
2021,04,23,08,33,10.10
2021,04,23,08,34,10.20
2021,04,23,08,35,10.20
2021,04,23,08,36,10.20
